Lumberton, NJ

8:26 PM EST on February 05, 2016 (GMT -0500)
South Jersey Regional

Weather History for KVAY - July, 2013

Change the Weather History Date:

Monday, July 22, 2013

  Actual Average (KWRI) Record (KWRI)
Temperature  
Mean Temperature 80 °F -  
Max Temperature 88 °F 83 °F 101 °F (2011)
Min Temperature 71 °F 64 °F 59 °F (2001)
Cooling Degree Days 14    
Growing Degree Days 30 (Base 50)    
Moisture  
Dew Point 72 °F    
Average Humidity 86    
Maximum Humidity 96    
Minimum Humidity 63    
Precipitation  
Precipitation 0.33 in - - ()
Sea Level Pressure  
Sea Level Pressure 29.89 in    
Wind  
Wind Speed 1 mph (East)    
Max Wind Speed 9 mph    
Max Gust Speed 17 mph    
Visibility 6 miles    
Events Rain    
Averages and records for this station are not official NWS values.
T = Trace of Precipitation, MM = Missing Value Source: NWS Daily Summary

Daily Weather History Graph

Daily Weather History Graph

Search for Another Location

Airport or City:

Trip Planner

Search our weather history database for the weather conditions in past years. The results will help you decide how hot, cold, wet, or windy it might be!

Date:

Astronomy

Jul. 22, 2013 Rise Set
Actual Time 5:49 AM EDT 8:22 PM EDT
Civil Twilight 5:18 AM EDT 8:53 PM EDT
Nautical Twilight 4:39 AM EDT 9:31 PM EDT
Astronomical Twilight 3:55 AM EDT 10:15 PM EDT
Moon 8:06 PM EDT (7/22) 5:42 AM EDT (7/22)
Length of Visible Light 15h 35m
Length of Day
14h 32m
Full, 100% of the Moon is Illuminated
Jul 22
Full
Jul 22
Full
Jul 29
Last Quarter
Aug 6
New
Aug 14
First Quarter

Hourly Weather History & Observations

Time (EDT) Temp. Heat Index Dew Point Humidity Pressure Visibility Wind Dir Wind Speed Gust Speed Precip Events Conditions
12:54 AM 71.1 °F - 70.0 °F 96% 29.95 in 6.0 mi Calm Calm - 0.04 in   Clear
1:54 AM 71.1 °F - 69.1 °F 93% 29.93 in 7.0 mi Calm Calm - 0.04 in   Clear
2:54 AM 71.1 °F - 69.1 °F 93% 29.93 in 7.0 mi Calm Calm - 0.03 in   Overcast
3:14 AM 71.6 °F - 69.8 °F 94% 29.93 in 8.0 mi Calm Calm - 0.01 in   Overcast
3:28 AM 71.6 °F - 69.8 °F 94% 29.93 in 8.0 mi Calm Calm - 0.02 in   Overcast
3:45 AM 71.6 °F - 69.8 °F 94% 29.93 in 8.0 mi Calm Calm - 0.03 in   Overcast
3:54 AM 72.0 °F - 70.0 °F 93% 29.93 in 8.0 mi Calm Calm - 0.03 in   Overcast
4:26 AM 71.6 °F - 69.8 °F 94% 29.92 in 7.0 mi Calm Calm - 0.02 in   Overcast
4:37 AM 71.6 °F - 69.8 °F 94% 29.92 in 5.0 mi Calm Calm - 0.02 in   Overcast
4:54 AM 72.0 °F - 70.0 °F 93% 29.92 in 5.0 mi Calm Calm - 0.03 in   Overcast
5:54 AM 73.0 °F - 71.1 °F 93% 29.92 in 4.0 mi Calm Calm - 0.02 in   Overcast
6:16 AM 73.4 °F - 71.6 °F 94% 29.92 in 2.0 mi Calm Calm - 0.01 in   Overcast
6:32 AM 73.4 °F - 71.6 °F 94% 29.92 in 2.5 mi Calm Calm - 0.02 in   Overcast
6:54 AM 73.0 °F - 71.1 °F 93% 29.93 in 2.0 mi Calm Calm - 0.03 in   Overcast
7:25 AM 73.4 °F - 71.6 °F 94% 29.93 in 1.8 mi Calm Calm - 0.01 in   Overcast
7:37 AM 73.4 °F - 71.6 °F 94% 29.93 in 2.0 mi Calm Calm - 0.01 in   Overcast
7:54 AM 75.0 °F - 72.0 °F 90% 29.93 in 2.0 mi ENE 3.5 mph - 0.02 in   Overcast
8:35 AM 75.2 °F - 73.4 °F 94% 29.93 in 3.0 mi ENE 4.6 mph - 0.01 in   Overcast
8:54 AM 77.0 °F - 73.0 °F 88% 29.94 in 3.0 mi Calm Calm - 0.02 in   Overcast
9:16 AM 77.0 °F - 73.4 °F 89% 29.93 in 3.0 mi East 3.5 mph - 0.01 in   Overcast
9:54 AM 77.0 °F - 73.9 °F 90% 29.94 in 3.0 mi East 3.5 mph - 0.02 in   Overcast
10:12 AM 78.8 °F - 73.4 °F 83% 29.94 in 4.0 mi Calm Calm - N/A   Overcast
10:24 AM 78.8 °F - 73.4 °F 83% 29.93 in 4.0 mi NE 3.5 mph - 0.01 in   Overcast
10:54 AM 79.0 °F - 73.9 °F 84% 29.93 in 5.0 mi East 3.5 mph - 0.01 in   Haze
11:03 AM 78.8 °F - 73.4 °F 83% 29.93 in 5.0 mi East 4.6 mph - 0.01 in   Haze
11:54 AM 82.0 °F 88.6 °F 75.0 °F 79% 29.93 in 7.0 mi East 4.6 mph - 0.02 in   Partly Cloudy
12:06 PM 82.4 °F 89.5 °F 75.2 °F 79% 29.92 in 7.0 mi Variable 5.8 mph - N/A   Mostly Cloudy
12:42 PM 82.4 °F 88.2 °F 73.4 °F 74% 29.91 in 10.0 mi Variable 4.6 mph - 0.01 in   Mostly Cloudy
12:54 PM 84.0 °F 91.2 °F 73.9 °F 72% 29.90 in 10.0 mi Variable 3.5 mph - 0.01 in   Scattered Clouds
1:54 PM 84.9 °F 92.1 °F 73.9 °F 69% 29.88 in 10.0 mi SSE 3.5 mph - 0.01 in   Partly Cloudy
2:54 PM 87.1 °F 95.4 °F 73.9 °F 65% 29.86 in 10.0 mi Variable 3.5 mph - N/A   Clear
3:54 PM 88.0 °F 96.5 °F 73.9 °F 63% 29.83 in 10.0 mi Calm Calm - N/A   Partly Cloudy
4:54 PM 87.1 °F 94.5 °F 73.0 °F 63% 29.81 in 10.0 mi South 3.5 mph - N/A   Scattered Clouds
5:54 PM 84.9 °F 92.1 °F 73.9 °F 69% 29.80 in 10.0 mi SE 6.9 mph - N/A   Mostly Cloudy
6:54 PM 77.0 °F - 70.0 °F 79% 29.81 in 10.0 mi Variable 6.9 mph 17.3 mph N/A   Overcast
7:33 PM 77.0 °F - 69.8 °F 78% 29.81 in 10.0 mi East 8.1 mph - N/A   Overcast
7:54 PM 75.9 °F - 69.1 °F 79% 29.80 in 10.0 mi ENE 9.2 mph - N/A   Overcast
8:54 PM 75.0 °F - 72.0 °F 90% 29.83 in 10.0 mi East 5.8 mph - 0.00 in Rain Light Rain
9:35 PM 75.2 °F - 71.6 °F 89% 29.82 in 10.0 mi Calm Calm - N/A   Overcast
9:54 PM 75.0 °F - 72.0 °F 90% 29.81 in 10.0 mi Calm Calm - N/A   Mostly Cloudy
10:54 PM 75.0 °F - 72.0 °F 90% 29.80 in 9.0 mi Calm Calm - N/A   Scattered Clouds
11:33 PM 75.2 °F - 73.4 °F 94% 29.79 in 7.0 mi Calm Calm - N/A   Mostly Cloudy
11:54 PM 75.9 °F - 73.0 °F 91% 29.78 in 6.0 mi SSE 3.5 mph - N/A   Overcast